Location: Glencliff
(36.1226°N, 86.7183°W)
Time: 05:02:36
(UTC+00:00)

Cosmos 1937 Rocket - Pass Details

Date: 25 August 2019
Orbit: 746 x 781 km, 74.0° (Epoch: 17 September)

Event Time Altitude Azimuth Distance (km) Brightness Sun altitude
Rises 01:42:53 0° 183° (S) 3,231 6.5 -15.4°
Reaches altitude 10° 01:45:18 10° 178° (S) 2,313 5.7 -15.9°
Maximum altitude 01:50:23 52° 103° (ESE) 966 3.6 -16.8°
Drops below altitude 10° 01:55:31 10° 28° (NNE) 2,339 6.0 -17.7°
Sets 01:57:58 0° 24° (NNE) 3,271 6.8 -18.1°
